Weather History for Perryton, TX

Change the Weather History Date:

Sunday, February 10, 2013

  Actual Average Record
Temperature  
Mean Temperature 40 °F -  
Max Temperature 51 °F 51 °F 82 °F (1976)
Min Temperature 30 °F 18 °F -5 °F (1982)
Degree Days  
Heating Degree Days 24    
Moisture  
Dew Point 18 °F    
Average Humidity 43    
Maximum Humidity 80    
Minimum Humidity 25    
Precipitation  
Precipitation 0.00 in - - ()
Sea Level Pressure  
Sea Level Pressure 29.78 in    
Wind  
Wind Speed 17 mph (NW)    
Max Wind Speed 29 mph    
Max Gust Speed 37 mph    
Visibility 10 miles    
Events      
Averages and records for this station are not official NWS values.
T = Trace of Precipitation, MM = Missing Value Source: NWS Daily Summary

Daily Weather History Graph

Daily Weather History Graph

Search for Another Location

Airport:

Trip Planner

Search our weather history database for the weather conditions in past years. The results will help you decide how hot, cold, wet, or windy it might be!

Date:

Astronomy

Feb. 10, 2013 Rise Set
Actual Time 7:35 AM CST 6:19 PM CST
Civil Twilight 7:09 AM CST 6:45 PM CST
Nautical Twilight 6:38 AM CST 7:16 PM CST
Astronomical Twilight 6:08 AM CST 7:46 PM CST
Moon 7:28 AM CST (2/10) 7:08 PM CST (2/10)
Length of Visible Light 11h 36m
Length of Day
10h 43m
New Moon, 0% of the Moon is Illuminated
Feb 10
New Moon
Feb 17
First Quarter
Feb 25
Full
Mar 4
Last Quarter
Mar 11
New

Hourly Weather History & Observations

Time (CST) Temp. Windchill Dew Point Humidity Pressure Visibility Wind Dir Wind Speed Gust Speed Precip Events Conditions
12:15 AM 41.0 °F 33.5 °F 12.2 °F 31% 29.58 in 10.0 mi SW 13.8 mph - N/A   Clear
12:35 AM 37.4 °F 28.9 °F 12.2 °F 36% 29.56 in 10.0 mi SW 13.8 mph - N/A   Clear
12:55 AM 37.4 °F 28.2 °F 10.4 °F 33% 29.57 in 10.0 mi SSW 16.1 mph - N/A   Clear
1:15 AM 37.4 °F 26.9 °F 10.4 °F 33% 29.56 in 10.0 mi SW 20.7 mph 26.5 mph N/A   Clear
1:35 AM 37.4 °F 27.5 °F 10.4 °F 33% 29.57 in 10.0 mi SW 18.4 mph - N/A   Clear
1:55 AM 37.4 °F 27.2 °F 10.4 °F 33% 29.56 in 10.0 mi SW 19.6 mph 26.5 mph N/A   Clear
2:15 AM 41.0 °F 30.2 °F 12.2 °F 31% 29.56 in 10.0 mi WSW 27.6 mph 36.8 mph N/A   Clear
2:35 AM 41.0 °F 31.1 °F 12.2 °F 31% 29.56 in 10.0 mi WSW 23.0 mph 36.8 mph N/A   Clear
2:55 AM 41.0 °F 30.7 °F 14.0 °F 33% 29.56 in 10.0 mi WSW 25.3 mph 32.2 mph N/A   Clear
3:15 AM 41.0 °F 31.4 °F 14.0 °F 33% 29.56 in 10.0 mi WSW 21.9 mph 31.1 mph N/A   Clear
3:35 AM 39.2 °F 29.3 °F 14.0 °F 36% 29.56 in 10.0 mi WSW 20.7 mph 28.8 mph N/A   Clear
3:55 AM 41.0 °F 30.5 °F 15.8 °F 36% 29.57 in 10.0 mi WSW 26.5 mph 29.9 mph N/A   Clear
4:15 AM 39.2 °F 28.7 °F 15.8 °F 39% 29.58 in 10.0 mi West 23.0 mph 28.8 mph N/A   Clear
4:35 AM 37.4 °F 25.6 °F 15.8 °F 41% 29.59 in 10.0 mi West 26.5 mph 34.5 mph N/A   Clear
4:55 AM 37.4 °F 27.2 °F 17.6 °F 45% 29.60 in 10.0 mi West 19.6 mph 27.6 mph N/A   Clear
5:15 AM 35.6 °F 25.5 °F 19.4 °F 52% 29.62 in 10.0 mi West 17.3 mph 23.0 mph N/A   Clear
5:35 AM 33.8 °F 23.5 °F 23.0 °F 65% 29.62 in 10.0 mi West 16.1 mph - N/A   Clear
5:55 AM 33.8 °F 23.5 °F 24.8 °F 70% 29.62 in 10.0 mi West 16.1 mph - N/A   Clear
6:15 AM 33.8 °F 24.3 °F 26.6 °F 75% 29.63 in 10.0 mi West 13.8 mph - N/A   Clear
6:35 AM 32.0 °F 22.5 °F 26.6 °F 80% 29.64 in 10.0 mi West 12.7 mph - N/A   Clear
6:55 AM 32.0 °F 21.2 °F 24.8 °F 75% 29.66 in 10.0 mi West 16.1 mph - N/A   Clear
7:15 AM 32.0 °F 21.2 °F 26.6 °F 80% 29.68 in 10.0 mi West 16.1 mph - N/A   Clear
7:35 AM 32.0 °F 22.5 °F 24.8 °F 75% 29.69 in 10.0 mi West 12.7 mph - N/A   Clear
7:55 AM 32.0 °F 22.1 °F 24.8 °F 75% 29.70 in 10.0 mi West 13.8 mph - N/A   Clear
8:15 AM 32.0 °F 21.6 °F 26.6 °F 80% 29.71 in 10.0 mi West 15.0 mph - N/A   Clear
8:35 AM 33.8 °F 23.5 °F 26.6 °F 75% 29.73 in 10.0 mi West 16.1 mph - N/A   Clear
8:55 AM 37.4 °F 28.2 °F 26.6 °F 65% 29.73 in 10.0 mi West 16.1 mph - N/A   Clear
9:15 AM 41.0 °F 32.5 °F 26.6 °F 57% 29.74 in 10.0 mi WNW 17.3 mph - N/A   Clear
9:35 AM 41.0 °F 31.4 °F 24.8 °F 53% 29.75 in 10.0 mi WNW 21.9 mph 28.8 mph N/A   Clear
9:55 AM 42.8 °F 33.1 °F 23.0 °F 46% 29.76 in 10.0 mi NW 25.3 mph 31.1 mph N/A   Clear
10:15 AM 42.8 °F 33.1 °F 23.0 °F 46% 29.78 in 10.0 mi WNW 25.3 mph 28.8 mph N/A   Clear
10:35 AM 44.6 °F 36.4 °F 23.0 °F 43% 29.78 in 10.0 mi NW 20.7 mph 27.6 mph N/A   Clear
10:55 AM 44.6 °F 35.7 °F 23.0 °F 43% 29.79 in 10.0 mi NW 24.2 mph 31.1 mph N/A   Clear
11:15 AM 44.6 °F 34.9 °F 21.2 °F 39% 29.80 in 10.0 mi NW 28.8 mph 34.5 mph N/A   Clear
11:35 AM 46.4 °F 37.5 °F 21.2 °F 37% 29.80 in 10.0 mi NW 27.6 mph - N/A   Clear
11:55 AM 46.4 °F 38.1 °F 19.4 °F 34% 29.80 in 10.0 mi NW 24.2 mph 31.1 mph N/A   Clear
12:15 PM 48.2 °F - 19.4 °F 32% 29.80 in 10.0 mi NW 23.0 mph 32.2 mph N/A   Clear
12:35 PM 50.0 °F - 19.4 °F 30% 29.80 in 10.0 mi NW 23.0 mph 31.1 mph N/A   Clear
12:55 PM 48.2 °F - 19.4 °F 32% 29.80 in 10.0 mi NW 24.2 mph 32.2 mph N/A   Clear
1:15 PM 50.0 °F - 19.4 °F 30% 29.80 in 10.0 mi NNW 24.2 mph 34.5 mph N/A   Clear
1:35 PM 50.0 °F - 19.4 °F 30% 29.80 in 10.0 mi NW 21.9 mph 29.9 mph N/A   Clear
1:55 PM 50.0 °F - 19.4 °F 30% 29.80 in 10.0 mi NW 24.2 mph 29.9 mph N/A   Clear
2:15 PM 51.8 °F - 19.4 °F 28% 29.80 in 10.0 mi WNW 20.7 mph 29.9 mph N/A   Clear
2:35 PM 51.8 °F - 17.6 °F 26% 29.81 in 10.0 mi NW 25.3 mph 29.9 mph N/A   Clear
2:55 PM 51.8 °F - 17.6 °F 26% 29.81 in 10.0 mi NW 18.4 mph 31.1 mph N/A   Clear
3:15 PM 51.8 °F - 17.6 °F 26% 29.82 in 10.0 mi NW 20.7 mph 25.3 mph N/A   Clear
3:35 PM 51.8 °F - 17.6 °F 26% 29.83 in 10.0 mi NW 19.6 mph 25.3 mph N/A   Clear
3:55 PM 50.0 °F - 17.6 °F 28% 29.84 in 10.0 mi NNW 15.0 mph 28.8 mph N/A   Clear
4:15 PM 50.0 °F - 15.8 °F 26% 29.85 in 10.0 mi NNW 15.0 mph 18.4 mph N/A   Clear
4:35 PM 50.0 °F - 15.8 °F 26% 29.86 in 10.0 mi NW 13.8 mph 24.2 mph N/A   Clear
4:55 PM 50.0 °F - 15.8 °F 26% 29.87 in 10.0 mi NW 17.3 mph 23.0 mph N/A   Clear
5:15 PM 50.0 °F - 15.8 °F 26% 29.87 in 10.0 mi NW 17.3 mph 21.9 mph N/A   Clear
5:35 PM 48.2 °F - 14.0 °F 25% 29.89 in 10.0 mi NNW 15.0 mph 21.9 mph N/A   Clear
5:55 PM 46.4 °F 40.7 °F 14.0 °F 27% 29.90 in 10.0 mi NNW 12.7 mph - N/A   Clear
6:15 PM 44.6 °F 39.7 °F 14.0 °F 29% 29.91 in 10.0 mi NNW 9.2 mph - N/A   Clear
6:35 PM 41.0 °F 36.4 °F 12.2 °F 31% 29.92 in 10.0 mi North 6.9 mph - N/A   Clear
6:55 PM 37.4 °F 31.4 °F 12.2 °F 36% 29.93 in 10.0 mi North 8.1 mph - N/A   Clear
7:15 PM 33.8 °F 25.8 °F 12.2 °F 41% 29.94 in 10.0 mi North 10.4 mph - N/A   Clear
7:35 PM 32.0 °F 24.8 °F 10.4 °F 41% 29.96 in 10.0 mi North 8.1 mph - N/A   Clear
7:55 PM 35.6 °F 30.7 °F 14.0 °F 41% 29.97 in 10.0 mi North 5.8 mph - N/A   Clear
8:15 PM 33.8 °F 27.0 °F 14.0 °F 44% 29.98 in 10.0 mi North 8.1 mph - N/A   Clear
8:35 PM 33.8 °F 29.6 °F 14.0 °F 44% 29.98 in 10.0 mi NNE 4.6 mph - N/A   Clear
8:55 PM 35.6 °F 29.9 °F 15.8 °F 44% 29.99 in 10.0 mi NNE 6.9 mph - N/A   Clear
9:15 PM 33.8 °F 27.0 °F 15.8 °F 48% 30.00 in 10.0 mi NNE 8.1 mph - N/A   Clear
9:35 PM 33.8 °F 27.7 °F 15.8 °F 48% 30.02 in 10.0 mi NE 6.9 mph - N/A   Clear
9:55 PM 33.8 °F 25.8 °F 17.6 °F 52% 30.02 in 10.0 mi NE 10.4 mph - N/A   Clear
10:15 PM 33.8 °F 27.7 °F 17.6 °F 52% 30.03 in 10.0 mi NE 6.9 mph - N/A   Clear
10:35 PM 32.0 °F 24.8 °F 17.6 °F 55% 30.03 in 10.0 mi NE 8.1 mph - N/A   Clear
10:55 PM 32.0 °F 26.4 °F 17.6 °F 55% 30.04 in 10.0 mi NE 5.8 mph - N/A   Clear
11:15 PM 30.2 °F 23.4 °F 17.6 °F 60% 30.04 in 10.0 mi NE 6.9 mph - N/A   Clear
11:35 PM 30.2 °F 21.3 °F 17.6 °F 60% 30.04 in 10.0 mi NE 10.4 mph - N/A   Clear
11:55 PM 32.0 °F 24.2 °F 19.4 °F 60% 30.06 in 10.0 mi NE 9.2 mph - N/A   Clear